Location: Brivio
(45.7333°N, 9.4500°E)
Time: 16:02:04
(UTC+00:00)

Envisat - Pass Details

Date: 18 October 2019
Orbit: 764 x 766 km, 98.1° (Epoch: 12 November)

Event Time Altitude Azimuth Distance (km) Brightness Sun altitude
Rises 17:03:28 0° 156° (SSE) 3,220 6.1 -6.2°
Reaches altitude 10° 17:05:47 10° 154° (SSE) 2,298 5.3 -6.6°
Maximum altitude 17:10:47 66° 73° (ENE) 838 3.0 -7.5°
Drops below altitude 10° 17:15:50 10° 352° (N) 2,314 5.5 -8.4°
Sets 17:18:10 0° 350° (N) 3,244 6.3 -8.8°
